Regional Weather Roundup
Issued by NWS Boston, MA

Current Version | Previous Version | Graphics & Text | Print | Product List | Glossary Off
Versions: 1 2 3 4 5 6 7 8 9 10 11 12 13 14 15 16 17 18 19 20 21 22 23 24 25 26 27 28 29 30 31 32 33 34 35 36 37 38 39 40 41 42 43 44 45 46 47 48 49 50
000 ASUS41 KBOX 220510 RWRBOX REGIONAL WEATHER ROUNDUP NATIONAL WEATHER SERVICE TAUNTON MA 100 AM EDT SUN OCT 22 2017 NOTE: "FAIR" INDICATES FEW OR NO CLOUDS BELOW 12,000 FEET WITH NO SIGNIFICANT WEATHER AND/OR OBSTRUCTIONS TO VISIBILITY. MAZALL-220600- EASTERN MASSACHUSETTS CITY SKY/WX TMP DP RH WIND PRES REMARKS BOSTON CLOUDY 58 48 69 SW5 30.32S BEVERLY CLOUDY 54 46 74 CALM 30.31S LAWRENCE CLOUDY 57 47 69 CALM 30.33F BEDFORD CLOUDY 50 44 80 CALM 30.31F BLUE HILL N/A 62 40 44 W9 30.33S NORWOOD CLOUDY 50 47 89 CALM 30.33S MARSHFIELD MOCLDY 57 50 77 W6 30.32S PLYMOUTH PTCLDY 51 47 86 CALM 30.34S TAUNTON CLOUDY 46 44 93 CALM 30.33S FOG NEW BEDFORD PTCLDY 51 48 89 CALM 30.33S $$ MAZALL-220600- CAPE COD AND THE ISLANDS CITY SKY/WX TMP DP RH WIND PRES REMARKS FALMOUTH CLOUDY 54 54 100 CALM 30.35S HYANNIS MOCLDY 60 57 89 SW6 30.33F CHATHAM PTCLDY 61 59 93 SW7 30.35F PROVINCETOWN CLOUDY 58 55 90 S7 30.34S NANTUCKET PTCLDY 60 58 92 SW9 30.36S MARTHAS VNYRD PTCLDY 56 56 100 SW5 30.35S $$ MAZALL-220600- CENTRAL AND WESTERN MASSACHUSETTS CITY SKY/WX TMP DP RH WIND PRES REMARKS WORCESTER CLOUDY 61 37 41 W9 30.35S FITCHBURG MOCLDY 52 49 89 CALM 30.34S ORANGE CLOUDY 44 44 100 CALM 30.36R FOG SPRINGFIELD CLEAR 42 41 95 NE3 30.34 WESTFIELD CLEAR 45 44 97 N3 30.35R NORTH ADAMS CLEAR 40 38 93 CALM 30.37R PITTSFIELD CLEAR 43 40 89 CALM 30.36R $$ RIZALL-220600- RHODE ISLAND CITY SKY/WX TMP DP RH WIND PRES REMARKS PROVIDENCE PTCLDY 53 49 86 SW5 30.35R NEWPORT CLOUDY 51 50 96 CALM 30.34S BLOCK ISLAND CLEAR 59 55 87 SW8 30.36R SMITHFIELD PTCLDY 51 47 86 CALM 30.34S WESTERLY CLOUDY 50 47 89 CALM 30.36R $$ CTZALL-220600- CONNECTICUT CITY SKY/WX TMP DP RH WIND PRES REMARKS BRADLEY INTL CLOUDY 47 45 93 CALM 30.35R HARTFORD HVY RAIN 51 49 92 CALM 30.35R BRIDGEPORT PTCLDY 54 49 83 CALM 30.35S DANBURY CLEAR 45 43 93 CALM 30.37S GROTON CLOUDY 51 49 92 N5 30.35R NEW HAVEN CLOUDY 48 45 89 CALM 30.36R CHESTER FAIR 59 48 67 W5 30.36R MERIDEN CLOUDY 46 45 96 CALM 30.36R WILLIMANTIC CLOUDY 47 44 90 CALM 30.36S OXFORD CLOUDY 47 44 90 CALM 30.37R $$ MEZ002-015-021-024-NHZ003-005-008-011-012-014-VTZ005-008-220600- NORTHERN NEW ENGLAND CITY SKY/WX TMP DP RH WIND PRES REMARKS PORTLAND ME CLOUDY 51 48 89 CALM 30.32R BANGOR ME CLOUDY 50 43 77 CALM 30.34R CONCORD NH PTCLDY 48 45 89 CALM 30.33S MANCHESTER NH PTCLDY 53 48 83 CALM 30.31S NASHUA NH CLOUDY 50 47 89 CALM 30.33S PORTSMOUTH NH MOCLDY 57 48 73 NW3 30.30S JAFFREY NH PTCLDY 47 46 97 S3 30.35S KEENE NH CLOUDY 44 43 96 CALM 30.36R BURLINGTON VT CLEAR 51 47 86 CALM 30.31R MT. WASHINGTON CLOUDY 50 25 37 N9 N/A $$ NYZ052-076-220600- EASTERN NEW YORK CITY SKY/WX TMP DP RH WIND PRES REMARKS ALBANY PTCLDY 47 44 90 CALM 30.34S NEW YORK CITY MOCLDY 64 47 53 CALM 30.35S $$ ANZALL-220600- MARINE OBSERVATIONS STATION/POSITION TIME TEMP WIND PRES VSBY WAVE AIR SEA DIR/SP/G HT/PER (UTC) (F) (DEG/KT/KT) (MB) (MI) (FT/S) BOSTON BUOY 0450 60 59 230/ 6/ 8 1026.0F 1/10 BUZZARDS BAY 0400 63 220/ 8/ 9 1028.0R NANTUCKET SOUND 0350 62 62 230/ 12/ 14 1027.5 1 MASS BAY-STELLWA 0404 61 59 250/ 6/ 8 1025.6R 1/ 8 ISLE OF SHOALS 0400 63 260/ 7/ 8 1026.1R S OF BLOCK IS NOT AVBL $$ ......................KEY......................... SKY/WX - SKY CONDITION/PRESENT WEATHER TMP - TEMPERATURE IN FAHRENHEIT DWPT - DEWPOINT IN FAHRENHEIT RH - RELATIVE HUMIDITY IN PERCENT WIND - DIRECTION AND SPEED IN MPH PRES - MEAN SEA LEVEL PRESSURE IN INCHES OF HG WCI - WIND CHILL INDEX VSB - VISIBILITY IN MILES HX - HEAT INDEX TC - TEMPERATURE IN CELSIUS VRB - VARIABLE WIND DIRECTION N/A - NOT AVAILABLE

USA.gov is the U.S. government's official web portal to all federal, state and local government web resources and services.